Location: Shenandoah County Park
(38.9356°N, 78.4524°W)
Time: 07:47:54
(UTC-04:00)

Transit 4A - Pass Details

Date: 08 March 2024
Orbit: 871 x 972 km, 66.8° (Epoch: 13 April)

Event Time Altitude Azimuth Distance (km) Brightness Sun altitude
Rises 06:01:28 0° 343° (NNW) 3,489 10.7 -7.4°
Reaches altitude 10° 06:05:05 10° 5° (N) 2,535 10.3 -6.7°
Maximum altitude 06:08:32 16° 42° (NE) 2,136 10.4 -6.0°
Drops below altitude 10° 06:11:58 10° 79° (ENE) 2,518 11.8 -5.3°
Sets 06:15:31 0° 101° (E) 3,454 13.3 -4.6°
